Location: Apeadero de Los Molinos-Guadarrama
(40.7091°N, 4.0689°W)
Time: 12:00:26
(UTC+00:00)

Cosmos 1943 Rocket - Pass Details

Date: 14 May 2021
Orbit: 814 x 842 km, 71.0° (Epoch: 18 June)

Event Time Altitude Azimuth Distance (km) Brightness Sun altitude
Exits shadow 22:56:34 36° 249° (WSW) 1,306 3.1 -27.9°
Maximum altitude 22:58:25 49° 298° (WNW) 1,067 2.9 -28.0°
Drops below altitude 10° 23:03:50 10° 13° (NNE) 2,442 5.3 -28.3°
Sets 23:06:22 0° 19° (NNE) 3,374 6.1 -28.5°
